Погода Варандей

Погода Варандей : погода сейчас, прогноз погоды и архив. Всё, что Вы хотите узнать о погоде Варандей!

Хотите узнать прогноз погоды Варандей? Тогда Вам сюда: Погода Варандей

Поиск расширенной информации на нашем сайте:

Другие новости

Новости СМИ2

Главная страница сайта

Новости сайта

03.07.2017

Напоминаем, что на нашем специализированном сайте Метеоцентр.Азия вы можете получить высокодетализированные автоматические прогнозы погоды по пунктам России, СНГ и мира в авиационном формате (включающие направление и скорость ветра, видимость, явления погоды, количество и форму облачности, нижнюю и верхнюю границу облачности).


Погода Варандей - сегодня

Время (UTC), дата Ветер
(°,м/с) 
Видим.   Явления Облачность Т
(°С)
Тd
(°С)
f(%) Тe
(°С)
Pmin
(гПа)
dP
(гПа)
Po
(мм)
O2
(г/м3)
Тmin Tmax R s Состояние
почвы
03 20.10.17 210 (ЮЗ) 5{10}  н/о    н/о 
-1 -2.7 88 -4  995.7  0.7  746  302  -1         
06 20.10.17 210 (ЮЗ) 10 км    9/9 300 м кучево-дожд. 
[Cb calv]
-1.6 -1.6 100 -5  996.1  0.5  746  303  -1.9         
09 20.10.17 230 (ЮЗ) 5{11}  10 км    9/9 300 м кучево-дожд. 
[Cb calv]
+0.3 -1 91 -3  996.8  0.7  747  301           
12 20.10.17 210 (ЮЗ) 10 км  в посл. час ливневой снег  9/9 300 м кучево-дожд. 
[Cb calv]
-0.2 -0.6 97 -3  997.7  0.9  748  302           
15 20.10.17 220 (ЮЗ) 7{10}  20000 м  {ливн. осадки}  9/9 300 м 
[Sc]
-0.5 -0.8 98 -4  997.8  0.1  748  302    +1.4  0.0     
18 20.10.17 220 (ЮЗ) 20000 м  {ливн. осадки}  9/9 300 м 
[Sc]
-0.5 -1.1 96 -4  997.5  -0.3  748  302           
21 20.10.17 190 (Ю) 20000 м    9/9 360 м 
[Sc]
-1.1 -1.1 100 -5  996.9  -0.6  747  302           
00 21.10.17 190 (Ю) 20000 м    9/9 300 м 
[Sc]
-0.8 -0.8 100 -4  996.2  -0.7  747  302           
03 21.10.17 190 (Ю) 1000 м  дымка  10/10 150 м 
[St]
-0.6 -0.6 100 -4  996.1  -0.1  746  301  -1.6      мокрый или
старый снег
50-90% 
06 21.10.17 150 (ЮВ) 10 км    10/10 200 м 
[St]
-0.5 -0.5 100 -2  996.4  0.3  747  301           
09 21.10.17 120 (ЮВ) 10 км    10/10 200 м 
[St]
-0.1 -0.1 100 -1  997  0.6  747  301           
12 21.10.17 090 (В) 0200 м  туман  ?/?  
-0.3 -0.3 100 -2  998  748  302           
15 21.10.17 070 (В) 10 км  {туман}  10/10 180 м 
[St]
-0.9 -0.9 100 -3  998.8  0.8  749  303    +0       
18 21.10.17 070 (В) 10 км  слаб. снег{туман}  10/10 270 м 
[Frnb|Ns]
-1.5 -1.5 100 -2  999.5  0.7  749  304           
21 21.10.17 220 (ЮЗ) 4000 м  слаб. снег  10/10 270 м 
[Frnb|Ns]
-1.5 -1.5 100 -2  999.9  0.4  749  304           
00 22.10.17 190 (Ю) 10 км  слаб. снег  10/10 270 м 
[Frnb|Ns]
-1.5 -1.5 100 -3  1000.6  0.7  750  304           
03 22.10.17 210 (ЮЗ) 20000 м  {снег}  9/9 360 м 
[Sc]
-1.4 -1.4 100 -4  1001.6  751  304  -1.8    равномерный
сухой снег
100% 
06 22.10.17 170 (Ю) н/о    н/о 
-1 -1 100 -2  1003.6  1.9  752  304           
09 22.10.17 тихо ()   20000 м    9/9 300 м 
[Sc]
-0.3 -0.3 100 -0  1005.3  1.8  753  304           
12 22.10.17 240 (ЮЗ) 10 км  слаб. снег  10/10 240 м 
[Frnb|Ns]
-0.1 -0.1 100 -2  1006.5  1.2  754  304           
15 22.10.17 010 (С) 10 км  слаб. снег  10/10 270 м 
[Frnb|Ns]
+1 +0.5 96 -2  1007.5  755  303    +1.4  0.0     
18 22.10.17 010 (С) 20000 м  слаб. снег{дождь}  10/8 300 м средняя 
[Sc|As op]
+1 -0.6 89 -2  1008.7  1.2  756  304           
21 22.10.17 040 (СВ) 6{10}  10 км  слаб. снег{дождь}  10/10 2000 м 
[Ns]
+0.6 +0.3 98 -3  1010.1  1.4  757  304           
00 23.10.17 060 (СВ) 5{11}  10 км  слаб. снег{дождь}  10/8 300 м средняя 
[Sc|As op]
-0.8 -0.8 100 -4  1012.2  2.1  759  307           
03 23.10.17 020 (С) 7{10}  10 км  в посл. час снег  9/9 360 м 
[Sc]
+0.5 +0.5 100 -3  1013.5  1.3  760  305  -0.9    0.3  равномерный
сухой снег
100% 
Время (UTC), дата Ветер
(°,м/с) 
Видим.   Явления Облачность Т
(°С)
Тd
(°С)
f(%) Тe
(°С)
Pmin
(гПа)
dP
(гПа)
Po
(мм)
O2
(г/м3)
Тmin Tmax R s Состояние
почвы

Для получения пояснительной информации подведите курсор к названию столбца.

ПОГОДА Варандей - архив

Всё, что Вы хотите узнать о погоде Варандей - удобно и подробно!

Выберите нужную дату (начиная с 1 января 2015* года) и нажмите кнопку "Найти".
Будут отображены архивные сводки погоды по пункту Варандей, начиная с указанной даты.


Отображать данные в формате CSV (для использования в таблицах Excel)


Внимание! Наш архив погоды предназначен исключительно для личного некоммерческого использования в познавательных целях. Если Вам необходимы официальные справки о состоянии погоды (для производственных, юридических, коммерческих и т.п. целей), обращайтесь в органы Росгидромета.

*Примечание: данная дата относится к архиву по метеостанциям СССР (Россия, СНГ, Балтия).
Архив по метеостанциям Зарубежной Европы и Азии (кроме Китая) хранится 10 дней, по другим регионам земного шара (Китай, Африка, Америка, Австралия, Океания) - 1 день.

Варандей - район местоположения метеостанции


Название, широта, долгота, высота метеостанции:
Варандей 68.8°ш. 58°д. 5 м над ур. моря [Российская Федерация]

Дополнительная информация

В oтличие oт бoльшинства пoгoдных сайтoв мы публикуем пoдрoбную метеoинфoрмацию в детальнoм прoфессиoнальнoм фoрмате.

Характеристики температуры и влажнoсти вoздуха измеряются на высoте 2 м в тени вдали oт зданий и деревьев.
Скoрoсть ветра измеряется на высoте 10 м (на урoвне рoста челoвека скoрoсть ветра ниже в 1.5-2 раза). Если метеoстанция нахoдится в гoрoде или в лесу, тo скoрoсть ветра занижена на 2-4 м/с пo сравнению с oткрытым местoм. Скoрoсть ветра над акватoриями крупных рек и oзёр, а также на вершинах хoлмoв на 2-5 м/с выше, чем в oбычных услoвиях.
Атмoсфернoе давление в разных тoчках местнoсти мoжет значительнo oтличаться oт давления на метеoстанции, в зависимoсти oт услoвий рельефа (при пoдъёме на 10 м давление пoнижается примернo на 1 мм рт.ст.).